Year,Month,Day,Hour,Minute,Value (Times are PST for temperature in C)
2008,07,23,00,00,16.40
2008,07,23,00,01,16.40
2008,07,23,00,02,16.40
2008,07,23,00,03,16.40
2008,07,23,00,04,16.40
2008,07,23,00,05,16.40
2008,07,23,00,06,16.40
2008,07,23,00,07,16.40
2008,07,23,00,08,16.40
2008,07,23,00,09,16.40
2008,07,23,00,10,16.40
2008,07,23,00,11,16.40
2008,07,23,00,12,16.40
2008,07,23,00,13,16.40
2008,07,23,00,14,16.40
2008,07,23,00,15,16.40
2008,07,23,00,16,16.30
2008,07,23,00,17,16.30
2008,07,23,00,18,16.30
2008,07,23,00,19,16.30
2008,07,23,00,20,16.30
2008,07,23,00,21,16.30
2008,07,23,00,22,16.30
2008,07,23,00,23,16.30
2008,07,23,00,24,16.30
2008,07,23,00,25,16.30
2008,07,23,00,26,16.30
2008,07,23,00,27,16.30
2008,07,23,00,28,16.30
2008,07,23,00,29,16.30
2008,07,23,00,30,16.30
2008,07,23,00,31,16.30
2008,07,23,00,32,16.20
2008,07,23,00,33,16.20
2008,07,23,00,34,16.20
2008,07,23,00,35,16.10
2008,07,23,00,36,16.10
2008,07,23,00,37,16.10
2008,07,23,00,38,16.10
2008,07,23,00,39,16.10
2008,07,23,00,40,16.10
2008,07,23,00,41,16.10
2008,07,23,00,42,16.10
2008,07,23,00,43,16.10
2008,07,23,00,44,16.00
2008,07,23,00,45,16.00
2008,07,23,00,46,16.00
2008,07,23,00,47,16.00
2008,07,23,00,48,16.00
2008,07,23,00,49,16.00
2008,07,23,00,50,16.00
2008,07,23,00,51,16.00
2008,07,23,00,52,16.00
2008,07,23,00,53,15.90
2008,07,23,00,54,15.90
2008,07,23,00,55,15.90
2008,07,23,00,56,15.90
2008,07,23,00,57,15.90
2008,07,23,00,58,15.90
2008,07,23,00,59,15.90
2008,07,23,01,00,15.90
2008,07,23,01,01,15.90
2008,07,23,01,02,15.90
2008,07,23,01,03,15.90
2008,07,23,01,04,15.90
2008,07,23,01,05,15.90
2008,07,23,01,06,15.90
2008,07,23,01,07,15.90
2008,07,23,01,08,15.90
2008,07,23,01,09,16.00
2008,07,23,01,10,16.00
2008,07,23,01,11,16.00
2008,07,23,01,12,16.00
2008,07,23,01,13,16.00
2008,07,23,01,14,16.00
2008,07,23,01,15,16.00
2008,07,23,01,16,16.00
2008,07,23,01,17,16.00
2008,07,23,01,18,16.00
2008,07,23,01,19,16.00
2008,07,23,01,20,16.00
2008,07,23,01,21,16.00
2008,07,23,01,22,16.00
2008,07,23,01,23,16.00
2008,07,23,01,24,16.00
2008,07,23,01,25,16.00
2008,07,23,01,26,16.00
2008,07,23,01,27,16.00
2008,07,23,01,28,16.00
2008,07,23,01,29,16.00
2008,07,23,01,30,15.90
2008,07,23,01,31,15.90
2008,07,23,01,32,15.90
2008,07,23,01,33,15.90
2008,07,23,01,34,15.90
2008,07,23,01,35,15.90
2008,07,23,01,36,15.90
2008,07,23,01,37,15.90
2008,07,23,01,38,15.90
2008,07,23,01,39,15.90
2008,07,23,01,40,15.90
2008,07,23,01,41,15.90
2008,07,23,01,42,15.90
2008,07,23,01,43,15.90
2008,07,23,01,44,15.90
2008,07,23,01,45,15.90
2008,07,23,01,46,15.90
2008,07,23,01,47,15.90
2008,07,23,01,48,15.90
2008,07,23,01,49,15.90
2008,07,23,01,50,15.90
2008,07,23,01,51,15.90
2008,07,23,01,52,15.90
2008,07,23,01,53,15.90
2008,07,23,01,54,15.80
2008,07,23,01,55,15.80
2008,07,23,01,56,15.80
2008,07,23,01,57,15.80
2008,07,23,01,58,15.80
2008,07,23,01,59,15.80
2008,07,23,02,00,15.80
2008,07,23,02,01,15.80
2008,07,23,02,02,15.80
2008,07,23,02,03,15.80
2008,07,23,02,04,15.80
2008,07,23,02,05,15.70
2008,07,23,02,06,15.70
2008,07,23,02,07,15.70
2008,07,23,02,08,15.70
2008,07,23,02,09,15.70
2008,07,23,02,10,15.70
2008,07,23,02,11,15.70
2008,07,23,02,12,15.70
2008,07,23,02,13,15.60
2008,07,23,02,14,15.60
2008,07,23,02,15,15.60
2008,07,23,02,16,15.60
2008,07,23,02,17,15.60
2008,07,23,02,18,15.60
2008,07,23,02,19,15.60
2008,07,23,02,20,15.50
2008,07,23,02,21,15.50
2008,07,23,02,22,15.50
2008,07,23,02,23,15.40
2008,07,23,02,24,15.40
2008,07,23,02,25,15.40
2008,07,23,02,26,15.30
2008,07,23,02,27,15.30
2008,07,23,02,28,15.30
2008,07,23,02,29,15.30
2008,07,23,02,30,15.20
2008,07,23,02,31,15.20
2008,07,23,02,32,15.20
2008,07,23,02,33,15.20
2008,07,23,02,34,15.20
2008,07,23,02,35,15.10
2008,07,23,02,36,15.10
2008,07,23,02,37,15.00
2008,07,23,02,38,15.00
2008,07,23,02,39,15.00
2008,07,23,02,40,15.00
2008,07,23,02,41,15.00
2008,07,23,02,42,15.00
2008,07,23,02,43,15.00
2008,07,23,02,44,15.00
2008,07,23,02,45,15.00
2008,07,23,02,46,15.00
2008,07,23,02,47,15.00
2008,07,23,02,48,15.00
2008,07,23,02,49,15.00
2008,07,23,02,50,14.90
2008,07,23,02,51,14.90
2008,07,23,02,52,14.80
2008,07,23,02,53,14.80
2008,07,23,02,54,14.80
2008,07,23,02,55,14.80
2008,07,23,02,56,14.80
2008,07,23,02,57,14.80
2008,07,23,02,58,14.80
2008,07,23,02,59,14.80
2008,07,23,03,00,14.80
2008,07,23,03,01,14.80
2008,07,23,03,02,14.80
2008,07,23,03,03,14.80
2008,07,23,03,04,14.80
2008,07,23,03,05,14.80
2008,07,23,03,06,14.80
2008,07,23,03,07,14.80
2008,07,23,03,08,14.80
2008,07,23,03,09,14.80
2008,07,23,03,10,14.80
2008,07,23,03,11,14.70
2008,07,23,03,12,14.70
2008,07,23,03,13,14.70
2008,07,23,03,14,14.70
2008,07,23,03,15,14.70
2008,07,23,03,16,14.70
2008,07,23,03,17,14.70
2008,07,23,03,18,14.70
2008,07,23,03,19,14.60
2008,07,23,03,20,14.60
2008,07,23,03,21,14.60
2008,07,23,03,22,14.60
2008,07,23,03,23,14.60
2008,07,23,03,24,14.50
2008,07,23,03,25,14.50
2008,07,23,03,26,14.50
2008,07,23,03,27,14.50
2008,07,23,03,28,14.40
2008,07,23,03,29,14.40
2008,07,23,03,30,14.40
2008,07,23,03,31,14.40
2008,07,23,03,32,14.40
2008,07,23,03,33,14.40
2008,07,23,03,34,14.30
2008,07,23,03,35,14.30
2008,07,23,03,36,14.30
2008,07,23,03,37,14.30
2008,07,23,03,38,14.30
2008,07,23,03,39,14.30
2008,07,23,03,40,14.30
2008,07,23,03,41,14.20
2008,07,23,03,42,14.20
2008,07,23,03,43,14.20
2008,07,23,03,44,14.20
2008,07,23,03,45,14.20
2008,07,23,03,46,14.20
2008,07,23,03,47,14.10
2008,07,23,03,48,14.10
2008,07,23,03,49,14.10
2008,07,23,03,50,14.10
2008,07,23,03,51,14.10
2008,07,23,03,52,14.10
2008,07,23,03,53,14.10
2008,07,23,03,54,14.10
2008,07,23,03,55,14.10
2008,07,23,03,56,14.10
2008,07,23,03,57,14.10
2008,07,23,03,58,14.10
2008,07,23,03,59,14.00
2008,07,23,04,00,14.00
2008,07,23,04,01,14.00
2008,07,23,04,02,14.00
2008,07,23,04,03,14.00
2008,07,23,04,04,14.00
2008,07,23,04,05,14.00
2008,07,23,04,06,14.00
2008,07,23,04,07,14.00
2008,07,23,04,08,14.00
2008,07,23,04,09,14.00
2008,07,23,04,10,14.00
2008,07,23,04,11,14.00
2008,07,23,04,12,14.00
2008,07,23,04,13,14.00
2008,07,23,04,14,14.00
2008,07,23,04,15,14.00
2008,07,23,04,16,14.00
2008,07,23,04,17,13.90
2008,07,23,04,18,13.90
2008,07,23,04,19,13.90
2008,07,23,04,20,13.90
2008,07,23,04,21,13.90
2008,07,23,04,22,13.90
2008,07,23,04,23,13.80
2008,07,23,04,24,13.80
2008,07,23,04,25,13.80
2008,07,23,04,26,13.80
2008,07,23,04,27,13.70
2008,07,23,04,28,13.70
2008,07,23,04,29,13.70
2008,07,23,04,30,13.70
2008,07,23,04,31,13.60
2008,07,23,04,32,13.60
2008,07,23,04,33,13.60
2008,07,23,04,34,13.60
2008,07,23,04,35,13.60
2008,07,23,04,36,13.60
2008,07,23,04,37,13.60
2008,07,23,04,38,13.60
2008,07,23,04,39,13.60
2008,07,23,04,40,13.60
2008,07,23,04,41,13.60
2008,07,23,04,42,13.60
2008,07,23,04,43,13.60
2008,07,23,04,44,13.60
2008,07,23,04,45,13.60
2008,07,23,04,46,13.60
2008,07,23,04,47,13.60
2008,07,23,04,48,13.60
2008,07,23,04,49,13.60
2008,07,23,04,50,13.60
2008,07,23,04,51,13.60
2008,07,23,04,52,13.60
2008,07,23,04,53,13.70
2008,07,23,04,54,13.70
2008,07,23,04,55,13.70
2008,07,23,04,56,13.70
2008,07,23,04,57,13.70
2008,07,23,04,58,13.80
2008,07,23,04,59,13.80
2008,07,23,05,00,13.80
2008,07,23,05,01,13.80
2008,07,23,05,02,13.80
2008,07,23,05,03,13.90
2008,07,23,05,04,13.90
2008,07,23,05,05,13.90
2008,07,23,05,06,14.00
2008,07,23,05,07,14.00
2008,07,23,05,08,14.10
2008,07,23,05,09,14.10
2008,07,23,05,10,14.10
2008,07,23,05,11,14.10
2008,07,23,05,12,14.10
2008,07,23,05,13,14.10
2008,07,23,05,14,14.10
2008,07,23,05,15,14.10
2008,07,23,05,16,14.10
2008,07,23,05,17,14.20
2008,07,23,05,18,14.20
2008,07,23,05,19,14.20
2008,07,23,05,20,14.20
2008,07,23,05,21,14.20
2008,07,23,05,22,14.20
2008,07,23,05,23,14.20
2008,07,23,05,24,14.20
2008,07,23,05,25,14.20
2008,07,23,05,26,14.20
2008,07,23,05,27,14.20
2008,07,23,05,28,14.20
2008,07,23,05,29,14.30
2008,07,23,05,30,14.30
2008,07,23,05,31,14.30
2008,07,23,05,32,14.30
2008,07,23,05,33,14.30
2008,07,23,05,34,14.30
2008,07,23,05,35,14.30
2008,07,23,05,36,14.30
2008,07,23,05,37,14.30
2008,07,23,05,38,14.30
2008,07,23,05,39,14.40
2008,07,23,05,40,14.40
2008,07,23,05,41,14.40
2008,07,23,05,42,14.40
2008,07,23,05,43,14.40
2008,07,23,05,44,14.40
2008,07,23,05,45,14.40
2008,07,23,05,46,14.40
2008,07,23,05,47,14.40
2008,07,23,05,48,14.40
2008,07,23,05,49,14.40
2008,07,23,05,50,14.40
2008,07,23,05,51,14.40
2008,07,23,05,52,14.40
2008,07,23,05,53,14.40
2008,07,23,05,54,14.40
2008,07,23,05,55,14.40
2008,07,23,05,56,14.40
2008,07,23,05,57,14.40
2008,07,23,05,58,14.40
2008,07,23,05,59,14.40
2008,07,23,06,00,14.40
2008,07,23,06,01,14.40
2008,07,23,06,02,14.40
2008,07,23,06,03,14.40
2008,07,23,06,04,14.40
2008,07,23,06,05,14.40
2008,07,23,06,06,14.40
2008,07,23,06,07,14.40
2008,07,23,06,08,14.40
2008,07,23,06,09,14.40
2008,07,23,06,10,14.40
2008,07,23,06,11,14.40
2008,07,23,06,12,14.40
2008,07,23,06,13,14.40
2008,07,23,06,14,14.40
2008,07,23,06,15,14.40
2008,07,23,06,16,14.40
2008,07,23,06,17,14.40
2008,07,23,06,18,14.50
2008,07,23,06,19,14.50
2008,07,23,06,20,14.50
2008,07,23,06,21,14.50
2008,07,23,06,22,14.50
2008,07,23,06,23,14.50
2008,07,23,06,24,14.60
2008,07,23,06,25,14.60
2008,07,23,06,26,14.60
2008,07,23,06,27,14.60
2008,07,23,06,28,14.60
2008,07,23,06,29,14.70
2008,07,23,06,30,14.70
2008,07,23,06,31,14.70
2008,07,23,06,32,14.70
2008,07,23,06,33,14.70
2008,07,23,06,34,14.80
2008,07,23,06,35,14.80
2008,07,23,06,36,14.80
2008,07,23,06,37,14.80
2008,07,23,06,38,14.90
2008,07,23,06,39,14.90
2008,07,23,06,40,14.90
2008,07,23,06,41,14.90
2008,07,23,06,42,15.00
2008,07,23,06,43,15.00
2008,07,23,06,44,15.00
2008,07,23,06,45,15.00
2008,07,23,06,46,15.00
2008,07,23,06,47,15.00
2008,07,23,06,48,15.00
2008,07,23,06,49,15.00
2008,07,23,06,50,15.00
2008,07,23,06,51,15.00
2008,07,23,06,52,15.10
2008,07,23,06,53,15.10
2008,07,23,06,54,15.20
2008,07,23,06,55,15.20
2008,07,23,06,56,15.20
2008,07,23,06,57,15.20
2008,07,23,06,58,15.20
2008,07,23,06,59,15.20
2008,07,23,07,00,15.20
2008,07,23,07,01,15.20
2008,07,23,07,02,15.30
2008,07,23,07,03,15.30
2008,07,23,07,04,15.20
2008,07,23,07,05,15.20
2008,07,23,07,06,15.20
2008,07,23,07,07,15.20
2008,07,23,07,08,15.30
2008,07,23,07,09,15.30
2008,07,23,07,10,15.30
2008,07,23,07,11,15.30
2008,07,23,07,12,15.30
2008,07,23,07,13,15.30
2008,07,23,07,14,15.30
2008,07,23,07,15,15.30
2008,07,23,07,16,15.30
2008,07,23,07,17,15.40
2008,07,23,07,18,15.40
2008,07,23,07,19,15.40
2008,07,23,07,20,15.40
2008,07,23,07,21,15.40
2008,07,23,07,22,15.40
2008,07,23,07,23,15.50
2008,07,23,07,24,15.50
2008,07,23,07,25,15.60
2008,07,23,07,26,15.60
2008,07,23,07,27,15.70
2008,07,23,07,28,15.70
2008,07,23,07,29,15.70
2008,07,23,07,30,15.80
2008,07,23,07,31,15.80
2008,07,23,07,32,15.80
2008,07,23,07,33,15.80
2008,07,23,07,34,15.80
2008,07,23,07,35,15.90
2008,07,23,07,36,15.90
2008,07,23,07,37,15.90
2008,07,23,07,38,16.00
2008,07,23,07,39,16.00
2008,07,23,07,40,16.10
2008,07,23,07,41,16.10
2008,07,23,07,42,16.20
2008,07,23,07,43,16.20
2008,07,23,07,44,16.10
2008,07,23,07,45,16.10
2008,07,23,07,46,16.10
2008,07,23,07,47,16.10
2008,07,23,07,48,16.00
2008,07,23,07,49,16.00
2008,07,23,07,50,16.00
2008,07,23,07,51,16.00
2008,07,23,07,52,15.90
2008,07,23,07,53,15.90
2008,07,23,07,54,15.90
2008,07,23,07,55,15.90
2008,07,23,07,56,15.80
2008,07,23,07,57,15.80
2008,07,23,07,58,15.80
2008,07,23,07,59,15.80
2008,07,23,08,00,15.70
2008,07,23,08,01,15.70
2008,07,23,08,02,15.70
2008,07,23,08,03,15.70
2008,07,23,08,04,15.70
2008,07,23,08,05,15.70
2008,07,23,08,06,15.70
2008,07,23,08,07,15.70
2008,07,23,08,08,15.70
2008,07,23,08,09,15.70
2008,07,23,08,10,15.70
2008,07,23,08,11,15.70
2008,07,23,08,12,15.70
2008,07,23,08,13,15.70
2008,07,23,08,14,15.70
2008,07,23,08,15,15.70
2008,07,23,08,16,15.70
2008,07,23,08,17,15.70
2008,07,23,08,18,15.70
2008,07,23,08,19,15.80
2008,07,23,08,20,15.80
2008,07,23,08,21,15.80
2008,07,23,08,22,15.80
2008,07,23,08,23,15.90
2008,07,23,08,24,15.90
2008,07,23,08,25,16.00
2008,07,23,08,26,16.00
2008,07,23,08,27,16.10
2008,07,23,08,28,16.20
2008,07,23,08,29,16.20
2008,07,23,08,30,16.20
2008,07,23,08,31,16.20
2008,07,23,08,32,16.20
2008,07,23,08,33,16.20
2008,07,23,08,34,16.20
2008,07,23,08,35,16.20
2008,07,23,08,36,16.10
2008,07,23,08,37,16.10
2008,07,23,08,38,16.00
2008,07,23,08,39,15.90
2008,07,23,08,40,15.90
2008,07,23,08,41,15.80
2008,07,23,08,42,15.90
2008,07,23,08,43,15.90
2008,07,23,08,44,15.90
2008,07,23,08,45,15.90
2008,07,23,08,46,15.90
2008,07,23,08,47,15.90
2008,07,23,08,48,15.90
2008,07,23,08,49,15.90
2008,07,23,08,50,15.90
2008,07,23,08,51,15.90
2008,07,23,08,52,15.90
2008,07,23,08,53,16.00
2008,07,23,08,54,15.90
2008,07,23,08,55,15.90
2008,07,23,08,56,15.90
2008,07,23,08,57,15.90
2008,07,23,08,58,15.90
2008,07,23,08,59,15.90
2008,07,23,09,00,15.90
2008,07,23,09,01,15.90
2008,07,23,09,02,15.90
2008,07,23,09,03,15.90
2008,07,23,09,04,15.90
2008,07,23,09,05,15.90
2008,07,23,09,06,15.90
2008,07,23,09,07,15.90
2008,07,23,09,08,16.00
2008,07,23,09,09,15.90
2008,07,23,09,10,15.90
2008,07,23,09,11,15.90
2008,07,23,09,12,15.90
2008,07,23,09,13,15.80
2008,07,23,09,14,15.70
2008,07,23,09,15,15.70
2008,07,23,09,16,15.60
2008,07,23,09,17,15.60
2008,07,23,09,18,15.60
2008,07,23,09,19,15.60
2008,07,23,09,20,15.50
2008,07,23,09,21,15.50
2008,07,23,09,22,15.40
2008,07,23,09,23,15.40
2008,07,23,09,24,15.40
2008,07,23,09,25,15.30
2008,07,23,09,26,15.30
2008,07,23,09,27,15.30
2008,07,23,09,28,15.20
2008,07,23,09,29,15.10
2008,07,23,09,30,15.00
2008,07,23,09,31,15.00
2008,07,23,09,32,15.00
2008,07,23,09,33,15.00
2008,07,23,09,34,15.00
2008,07,23,09,35,15.00
2008,07,23,09,36,15.00
2008,07,23,09,37,15.00
2008,07,23,09,38,15.00
2008,07,23,09,39,15.00
2008,07,23,09,40,15.00
2008,07,23,09,41,15.00
2008,07,23,09,42,15.00
2008,07,23,09,43,15.00
2008,07,23,09,44,15.00
2008,07,23,09,45,15.00
2008,07,23,09,46,15.20
2008,07,23,09,47,15.20
2008,07,23,09,48,15.20
2008,07,23,09,49,15.20
2008,07,23,09,50,15.20
2008,07,23,09,51,15.20
2008,07,23,09,52,15.30
2008,07,23,09,53,15.30
2008,07,23,09,54,15.30
2008,07,23,09,55,15.30
2008,07,23,09,56,15.40
2008,07,23,09,57,15.40
2008,07,23,09,58,15.50
2008,07,23,09,59,15.60
2008,07,23,10,00,15.70
2008,07,23,10,01,15.80
2008,07,23,10,02,15.80
2008,07,23,10,03,15.80
2008,07,23,10,04,15.80
2008,07,23,10,05,15.80
2008,07,23,10,06,15.80
2008,07,23,10,07,15.70
2008,07,23,10,08,15.70
2008,07,23,10,09,15.70
2008,07,23,10,10,15.70
2008,07,23,10,11,15.70
2008,07,23,10,12,15.60
2008,07,23,10,13,15.70
2008,07,23,10,14,15.70
2008,07,23,10,15,15.80
2008,07,23,10,16,15.90
2008,07,23,10,17,16.00
2008,07,23,10,18,16.10
2008,07,23,10,19,16.20
2008,07,23,10,20,16.30
2008,07,23,10,21,16.30
2008,07,23,10,22,16.40
2008,07,23,10,23,16.40
2008,07,23,10,24,16.40
2008,07,23,10,25,16.40
2008,07,23,10,26,16.30
2008,07,23,10,27,16.20
2008,07,23,10,28,16.20
2008,07,23,10,29,16.20
2008,07,23,10,30,16.20
2008,07,23,10,31,16.20
2008,07,23,10,32,16.20
2008,07,23,10,33,16.10
2008,07,23,10,34,16.10
2008,07,23,10,35,16.10
2008,07,23,10,36,16.10
2008,07,23,10,37,16.10
2008,07,23,10,38,16.10
2008,07,23,10,39,16.10
2008,07,23,10,40,16.10
2008,07,23,10,41,16.20
2008,07,23,10,42,16.20
2008,07,23,10,43,16.20
2008,07,23,10,44,16.20
2008,07,23,10,45,16.20
2008,07,23,10,46,16.10
2008,07,23,10,47,16.00
2008,07,23,10,48,16.00
2008,07,23,10,49,15.90
2008,07,23,10,50,16.00
2008,07,23,10,51,16.10
2008,07,23,10,52,16.30
2008,07,23,10,53,16.30
2008,07,23,10,54,16.30
2008,07,23,10,55,16.30
2008,07,23,10,56,16.40
2008,07,23,10,57,16.40
2008,07,23,10,58,16.40
2008,07,23,10,59,16.40
2008,07,23,11,00,16.30
2008,07,23,11,01,16.30
2008,07,23,11,02,16.30
2008,07,23,11,03,16.30
2008,07,23,11,04,16.20
2008,07,23,11,05,16.20
2008,07,23,11,06,16.20
2008,07,23,11,07,16.10
2008,07,23,11,08,16.20
2008,07,23,11,09,16.20
2008,07,23,11,10,16.30
2008,07,23,11,11,16.30
2008,07,23,11,12,16.40
2008,07,23,11,13,16.40
2008,07,23,11,14,16.50
2008,07,23,11,15,16.60
2008,07,23,11,16,16.60
2008,07,23,11,17,16.50
2008,07,23,11,18,16.50
2008,07,23,11,19,16.40
2008,07,23,11,20,16.40
2008,07,23,11,21,16.40
2008,07,23,11,22,16.40
2008,07,23,11,23,16.40
2008,07,23,11,24,16.40
2008,07,23,11,25,16.40
2008,07,23,11,26,16.40
2008,07,23,11,27,16.50
2008,07,23,11,28,16.70
2008,07,23,11,29,16.70
2008,07,23,11,30,16.60
2008,07,23,11,31,16.50
2008,07,23,11,32,16.40
2008,07,23,11,33,16.40
2008,07,23,11,34,16.30
2008,07,23,11,35,16.30
2008,07,23,11,36,16.20
2008,07,23,11,37,16.20
2008,07,23,11,38,16.10
2008,07,23,11,39,16.10
2008,07,23,11,40,16.20
2008,07,23,11,41,16.20
2008,07,23,11,42,16.30
2008,07,23,11,43,16.50
2008,07,23,11,44,16.60
2008,07,23,11,45,16.70
2008,07,23,11,46,16.90
2008,07,23,11,47,17.00
2008,07,23,11,48,17.10
2008,07,23,11,49,17.20
2008,07,23,11,50,17.20
2008,07,23,11,51,17.30
2008,07,23,11,52,17.20
2008,07,23,11,53,17.10
2008,07,23,11,54,17.10
2008,07,23,11,55,17.00
2008,07,23,11,56,16.90
2008,07,23,11,57,16.90
2008,07,23,11,58,16.80
2008,07,23,11,59,16.90
2008,07,23,12,00,16.80
2008,07,23,12,01,16.80
2008,07,23,12,02,16.70
2008,07,23,12,03,16.80
2008,07,23,12,04,16.80
2008,07,23,12,05,16.80
2008,07,23,12,06,16.80
2008,07,23,12,07,16.90
2008,07,23,12,08,16.90
2008,07,23,12,09,17.00
2008,07,23,12,10,17.00
2008,07,23,12,11,17.00
2008,07,23,12,12,17.00
2008,07,23,12,13,17.00
2008,07,23,12,14,16.90
2008,07,23,12,15,16.90
2008,07,23,12,16,16.90
2008,07,23,12,17,16.80
2008,07,23,12,18,16.80
2008,07,23,12,19,16.80
2008,07,23,12,20,16.80
2008,07,23,12,21,16.80
2008,07,23,12,22,16.90
2008,07,23,12,23,16.90
2008,07,23,12,24,17.00
2008,07,23,12,25,17.10
2008,07,23,12,26,17.10
2008,07,23,12,27,17.10
2008,07,23,12,28,17.20
2008,07,23,12,29,17.20
2008,07,23,12,30,17.10
2008,07,23,12,31,17.10
2008,07,23,12,32,17.10
2008,07,23,12,33,17.10
2008,07,23,12,34,17.10
2008,07,23,12,35,17.20
2008,07,23,12,36,17.20
2008,07,23,12,37,17.30
2008,07,23,12,38,17.30
2008,07,23,12,39,17.30
2008,07,23,12,40,17.30
2008,07,23,12,41,17.30
2008,07,23,12,42,17.40
2008,07,23,12,43,17.40
2008,07,23,12,44,17.60
2008,07,23,12,45,17.70
2008,07,23,12,46,17.60
2008,07,23,12,47,17.60
2008,07,23,12,48,17.50
2008,07,23,12,49,17.50
2008,07,23,12,50,17.50
2008,07,23,12,51,17.40
2008,07,23,12,52,17.40
2008,07,23,12,53,17.40
2008,07,23,12,54,17.40
2008,07,23,12,55,17.50
2008,07,23,12,56,17.60
2008,07,23,12,57,17.70
2008,07,23,12,58,17.80
2008,07,23,12,59,18.10
2008,07,23,13,00,18.30
2008,07,23,13,01,18.50
2008,07,23,13,02,18.70
2008,07,23,13,03,18.70
2008,07,23,13,04,18.70
2008,07,23,13,05,18.70
2008,07,23,13,06,18.70
2008,07,23,13,07,18.70
2008,07,23,13,08,18.80
2008,07,23,13,09,18.80
2008,07,23,13,10,18.90
2008,07,23,13,11,18.90
2008,07,23,13,12,18.80
2008,07,23,13,13,18.60
2008,07,23,13,14,18.60
2008,07,23,13,15,18.50
2008,07,23,13,16,18.40
2008,07,23,13,17,18.50
2008,07,23,13,18,18.60
2008,07,23,13,19,18.60
2008,07,23,13,20,18.60
2008,07,23,13,21,18.60
2008,07,23,13,22,18.50
2008,07,23,13,23,18.40
2008,07,23,13,24,18.40
2008,07,23,13,25,18.30
2008,07,23,13,26,18.20
2008,07,23,13,27,18.30
2008,07,23,13,28,18.50
2008,07,23,13,29,18.50
2008,07,23,13,30,18.50
2008,07,23,13,31,18.40
2008,07,23,13,32,18.20
2008,07,23,13,33,18.20
2008,07,23,13,34,18.20
2008,07,23,13,35,18.10
2008,07,23,13,36,18.10
2008,07,23,13,37,18.00
2008,07,23,13,38,18.10
2008,07,23,13,39,18.10
2008,07,23,13,40,18.30
2008,07,23,13,41,18.40
2008,07,23,13,42,18.30
2008,07,23,13,43,18.30
2008,07,23,13,44,18.40
2008,07,23,13,45,18.50
2008,07,23,13,46,18.50
2008,07,23,13,47,18.30
2008,07,23,13,48,18.20
2008,07,23,13,49,18.00
2008,07,23,13,50,17.90
2008,07,23,13,51,17.90
2008,07,23,13,52,17.90
2008,07,23,13,53,17.90
2008,07,23,13,54,17.90
2008,07,23,13,55,18.00
2008,07,23,13,56,18.00
2008,07,23,13,57,18.00
2008,07,23,13,58,18.00
2008,07,23,13,59,18.10
2008,07,23,14,00,18.30
2008,07,23,14,01,18.20
2008,07,23,14,02,18.20
2008,07,23,14,03,18.10
2008,07,23,14,04,18.10
2008,07,23,14,05,18.10
2008,07,23,14,06,17.90
2008,07,23,14,07,17.80
2008,07,23,14,08,17.70
2008,07,23,14,09,17.70
2008,07,23,14,10,17.60
2008,07,23,14,11,17.60
2008,07,23,14,12,17.70
2008,07,23,14,13,17.70
2008,07,23,14,14,17.80
2008,07,23,14,15,17.90
2008,07,23,14,16,17.90
2008,07,23,14,17,18.00
2008,07,23,14,18,18.10
2008,07,23,14,19,18.10
2008,07,23,14,20,18.00
2008,07,23,14,21,17.90
2008,07,23,14,22,17.80
2008,07,23,14,23,17.80
2008,07,23,14,24,17.80
2008,07,23,14,25,17.80
2008,07,23,14,26,17.80
2008,07,23,14,27,17.80
2008,07,23,14,28,17.80
2008,07,23,14,29,17.80
2008,07,23,14,30,17.80
2008,07,23,14,31,17.90
2008,07,23,14,32,18.00
2008,07,23,14,33,18.10
2008,07,23,14,34,18.20
2008,07,23,14,35,18.30
2008,07,23,14,36,18.50
2008,07,23,14,37,18.60
2008,07,23,14,38,18.60
2008,07,23,14,39,18.50
2008,07,23,14,40,18.50
2008,07,23,14,41,18.40
2008,07,23,14,42,18.30
2008,07,23,14,43,18.20
2008,07,23,14,44,18.10
2008,07,23,14,45,18.10
2008,07,23,14,46,18.20
2008,07,23,14,47,18.30
2008,07,23,14,48,18.30
2008,07,23,14,49,18.30
2008,07,23,14,50,18.10
2008,07,23,14,51,18.00
2008,07,23,14,52,18.00
2008,07,23,14,53,18.00
2008,07,23,14,54,18.00
2008,07,23,14,55,18.20
2008,07,23,14,56,18.30
2008,07,23,14,57,18.40
2008,07,23,14,58,18.60
2008,07,23,14,59,18.60
2008,07,23,15,00,18.70
2008,07,23,15,01,18.70
2008,07,23,15,02,18.80
2008,07,23,15,03,18.90
2008,07,23,15,04,18.90
2008,07,23,15,05,18.90
2008,07,23,15,06,18.80
2008,07,23,15,07,18.80
2008,07,23,15,08,18.80
2008,07,23,15,09,18.70
2008,07,23,15,10,18.70
2008,07,23,15,11,18.70
2008,07,23,15,12,18.70
2008,07,23,15,13,18.70
2008,07,23,15,14,18.80
2008,07,23,15,15,18.90
2008,07,23,15,16,18.90
2008,07,23,15,17,18.90
2008,07,23,15,18,18.90
2008,07,23,15,19,18.80
2008,07,23,15,20,18.80
2008,07,23,15,21,18.90
2008,07,23,15,22,18.90
2008,07,23,15,23,19.00
2008,07,23,15,24,19.10
2008,07,23,15,25,19.30
2008,07,23,15,26,19.30
2008,07,23,15,27,19.40
2008,07,23,15,28,19.30
2008,07,23,15,29,19.20
2008,07,23,15,30,19.10
2008,07,23,15,31,18.90
2008,07,23,15,32,18.90
2008,07,23,15,33,18.80
2008,07,23,15,34,18.80
2008,07,23,15,35,18.70
2008,07,23,15,36,18.60
2008,07,23,15,37,18.50
2008,07,23,15,38,18.50
2008,07,23,15,39,18.60
2008,07,23,15,40,18.60
2008,07,23,15,41,18.70
2008,07,23,15,42,18.80
2008,07,23,15,43,18.90
2008,07,23,15,44,18.90
2008,07,23,15,45,18.90
2008,07,23,15,46,18.90
2008,07,23,15,47,19.00
2008,07,23,15,48,19.00
2008,07,23,15,49,19.10
2008,07,23,15,50,19.10
2008,07,23,15,51,19.10
2008,07,23,15,52,19.10
2008,07,23,15,53,19.10
2008,07,23,15,54,19.00
2008,07,23,15,55,19.00
2008,07,23,15,56,18.90
2008,07,23,15,57,18.90
2008,07,23,15,58,19.00
2008,07,23,15,59,19.10
2008,07,23,16,00,19.10
2008,07,23,16,01,19.20
2008,07,23,16,02,19.30
2008,07,23,16,03,19.40
2008,07,23,16,04,19.40
2008,07,23,16,05,19.50
2008,07,23,16,06,19.50
2008,07,23,16,07,19.40
2008,07,23,16,08,19.40
2008,07,23,16,09,19.30
2008,07,23,16,10,19.30
2008,07,23,16,11,19.30
2008,07,23,16,12,19.30
2008,07,23,16,13,19.30
2008,07,23,16,14,19.40
2008,07,23,16,15,19.40
2008,07,23,16,16,19.40
2008,07,23,16,17,19.50
2008,07,23,16,18,19.50
2008,07,23,16,19,19.50
2008,07,23,16,20,19.50
2008,07,23,16,21,19.50
2008,07,23,16,22,19.60
2008,07,23,16,23,19.50
2008,07,23,16,24,19.50
2008,07,23,16,25,19.50
2008,07,23,16,26,19.60
2008,07,23,16,27,19.60
2008,07,23,16,28,19.50
2008,07,23,16,29,19.50
2008,07,23,16,30,19.50
2008,07,23,16,31,19.50
2008,07,23,16,32,19.40
2008,07,23,16,33,19.30
2008,07,23,16,34,19.20
2008,07,23,16,35,19.20
2008,07,23,16,36,19.20
2008,07,23,16,37,19.20
2008,07,23,16,38,19.20
2008,07,23,16,39,19.20
2008,07,23,16,40,19.20
2008,07,23,16,41,19.20
2008,07,23,16,42,19.20
2008,07,23,16,43,19.20
2008,07,23,16,44,19.20
2008,07,23,16,45,19.30
2008,07,23,16,46,19.30
2008,07,23,16,47,19.30
2008,07,23,16,48,19.30
2008,07,23,16,49,19.20
2008,07,23,16,50,19.20
2008,07,23,16,51,19.20
2008,07,23,16,52,19.20
2008,07,23,16,53,19.30
2008,07,23,16,54,19.40
2008,07,23,16,55,19.50
2008,07,23,16,56,19.60
2008,07,23,16,57,19.50
2008,07,23,16,58,19.40
2008,07,23,16,59,19.40
2008,07,23,17,00,19.30
2008,07,23,17,01,19.30
2008,07,23,17,02,19.40
2008,07,23,17,03,19.40
2008,07,23,17,04,19.40
2008,07,23,17,05,19.40
2008,07,23,17,06,19.40
2008,07,23,17,07,19.40
2008,07,23,17,08,19.40
2008,07,23,17,09,19.30
2008,07,23,17,10,19.30
2008,07,23,17,11,19.30
2008,07,23,17,12,19.30
2008,07,23,17,13,19.30
2008,07,23,17,14,19.30
2008,07,23,17,15,19.20
2008,07,23,17,16,19.20
2008,07,23,17,17,19.20
2008,07,23,17,18,19.20
2008,07,23,17,19,19.20